Weather History for Clayton Lake, ME

Change the Weather History Date:

Friday, January 25, 2013

  Actual Average Record
Temperature  
Mean Temperature 0 °F -  
Max Temperature 7 °F 17 °F 32 °F (1999)
Min Temperature -7 °F -6 °F -32 °F (2004)
Degree Days  
Heating Degree Days 66    
Moisture  
Dew Point -10 °F    
Average Humidity 68    
Maximum Humidity 75    
Minimum Humidity 54    
Precipitation  
Precipitation 0.01 in - - ()
Sea Level Pressure  
Sea Level Pressure 30.13 in    
Wind  
Wind Speed 7 mph (WSW)    
Max Wind Speed 10 mph    
Max Gust Speed 26 mph    
Averages and records for this station are not official NWS values.
T = Trace of Precipitation, MM = Missing Value Source: NWS Daily Summary

Daily Weather History Graph

Daily Weather History Graph

Search for Another Location

Airport:

Trip Planner

Search our weather history database for the weather conditions in past years. The results will help you decide how hot, cold, wet, or windy it might be!

Date:

Astronomy

Jan. 25, 2013 Rise Set
Actual Time 7:09 AM EST 4:31 PM EST
Civil Twilight 6:36 AM EST 5:04 PM EST
Nautical Twilight 6:00 AM EST 5:41 PM EST
Astronomical Twilight 5:24 AM EST 6:17 PM EST
Moon 3:25 PM EST (1/25) 5:47 AM EST (1/25)
Length of Visible Light 10h 28m
Length of Day
9h 22m
Waxing Gibbous, 98% of the Moon is Illuminated
Jan 25
Waxing Gibbous
Jan 26
Full
Feb 3
Last Quarter
Feb 10
New
Feb 17
First Quarter

Hourly Weather History & Observations

Time (EST) Temp. Windchill Dew Point Humidity Pressure Visibility Wind Dir Wind Speed Gust Speed Precip Events Conditions
12:25 AM -7.6 °F -24.6 °F -14.6 °F 71% 30.08 in - SW 9.2 mph 20.7 mph 0.00 in   Unknown
1:25 AM -7.8 °F -22.3 °F -14.6 °F 72% 30.09 in - WSW 6.9 mph 17.3 mph N/A   Unknown
2:25 AM -6.7 °F -24.5 °F -13.9 °F 71% 30.10 in - WSW 10.4 mph 21.9 mph N/A   Unknown
3:25 AM -6.2 °F -22.8 °F -13.2 °F 72% 30.10 in - WSW 9.2 mph 26.5 mph N/A   Unknown
4:25 AM -5.6 °F -22.2 °F -11.7 °F 75% 30.12 in - WSW 9.2 mph 20.7 mph N/A   Unknown
5:25 AM -5.6 °F -19.7 °F -12.1 °F 74% 30.12 in - Variable 6.9 mph 15.0 mph N/A   Unknown
6:25 AM -5.6 °F -16.5 °F -11.9 °F 74% 30.13 in - Variable 4.6 mph 18.4 mph N/A   Unknown
7:25 AM -4.9 °F -18.8 °F -11.2 °F 74% 30.14 in - Variable 6.9 mph 12.7 mph N/A   Unknown
8:27 AM -3.6 °F -14.1 °F -10.5 °F 72% 30.17 in - Variable 4.6 mph - N/A   Unknown
9:25 AM -0.9 °F -12.7 °F -9.0 °F 69% 30.18 in - Variable 5.8 mph 17.3 mph N/A   Unknown
10:26 AM 2.1 °F -10.4 °F -8.5 °F 61% 30.19 in - Variable 6.9 mph 20.7 mph N/A   Unknown
11:25 AM 4.1 °F -6.7 °F -7.6 °F 58% 30.18 in - Variable 5.8 mph 15.0 mph N/A   Unknown
12:28 PM 4.8 °F -4.3 °F -7.2 °F 58% 30.15 in - Variable 4.6 mph 17.3 mph N/A   Unknown
1:25 PM 6.1 °F -2.8 °F -7.2 °F 54% 30.14 in - Variable 4.6 mph 15.0 mph N/A   Unknown
2:25 PM 5.5 °F -5.0 °F -7.6 °F 55% 30.13 in - Variable 5.8 mph 15.0 mph N/A   Unknown
3:25 PM 4.5 °F - -7.2 °F 58% 30.12 in - Variable 2.3 mph - N/A   Unknown
4:25 PM 1.4 °F -6.2 °F -8.1 °F 64% 30.12 in - Variable 3.5 mph - N/A   Unknown
5:25 PM -1.1 °F -11.2 °F -9.2 °F 69% 30.11 in - Variable 4.6 mph - 0.00 in   Unknown
6:25 PM -3.8 °F -12.2 °F -10.5 °F 73% 30.12 in - Variable 3.5 mph - N/A   Unknown
7:25 PM -4.2 °F -12.6 °F -11.0 °F 72% 30.13 in - Variable 3.5 mph - 0.01 in   Unknown
8:25 PM -3.8 °F -12.2 °F -11.0 °F 71% 30.12 in - Variable 3.5 mph - N/A   Unknown
9:26 PM -3.5 °F -11.8 °F -10.8 °F 71% 30.12 in - Variable 3.5 mph - N/A   Unknown
10:25 PM -3.3 °F -13.7 °F -10.7 °F 71% 30.11 in - Variable 4.6 mph - 0.00 in   Unknown
11:25 PM -4.4 °F -12.8 °F -10.8 °F 74% 30.10 in - Variable 3.5 mph - N/A   Unknown